Weather Roundup
Issued by NWS

Home | Current Version | Previous Version | Graphics & Text | Print | Product List | Glossary Off
Versions: 1 2 3 4 5 6 7 8 9 10 11 12 13 14 15 16 17 18 19 20 21 22 23 24 25 26 27 28 29 30 31 32 33 34 35 36 37 38 39 40 41 42 43 44 45 46 47 48 49 50

000
NZUS93 KARX 030510
HRRWXR

CURRENT HOURLY OBSERVATIONS ACROSS
MUCH OF THE UPPER MISSISSIPPI VALLEY
NATIONAL WEATHER SERVICE LA CROSSE WI
1200 AM CDT THU SEP 03 2015


...SOUTHEAST MINNESOTA...


CITY           SKY/WX    TMP DP  RH WIND       PRES   REMARKS
ROCHESTER      PTCLDY    70  68  93 S6        29.93R
ROCHESTER/MAYO FAIR      74  72  93 SE5       29.92S
WINONA         CLEAR     73  70  88 CALM      29.91S
AUSTIN         CLEAR     72  70  94 CALM      29.92S
ALBERT LEA     CLEAR     73  70  88 S3        29.91S
DODGE CENTER   PTCLDY    70  68  94 S3        29.92S
PRESTON        CLEAR     71  68  89 S6        29.94R
OWATONNA       PTCLDY    72  70  94 SE8       29.90F
FARIBAULT      FOG       70  68  94 CALM      29.90F VSB 1/4
$$

...ELSEWHERE IN MINNESOTA...


CITY           SKY/WX    TMP DP  RH WIND       PRES   REMARKS
MINNEAPOLIS    MOCLDY    70  67  90 NE7       29.90F
INTNL FALLS    CLEAR     65  63  93 SE5       29.94R
DULUTH         CLOUDY    63  61  93 E8        29.98S
RED WING       PTCLDY    70  68  94 E5        29.90S
REDWOOD FALLS  CLEAR     73  71  93 E8        29.86S FOG
MANKATO        CLEAR     73  72  94 S8        29.89S
WORTHINGTON    CLEAR     72  66  83 S7        29.89S
FAIRMONT       CLEAR     72  64  78 S7        29.89R
$$

...SOUTHWEST WISCONSIN...


CITY           SKY/WX    TMP DP  RH WIND       PRES   REMARKS
LA CROSSE      MOCLDY    76  70  82 S6        29.91R
PRAIRIE DU CHI PTCLDY    73  67  82 CALM      29.93S
BOSCOBEL       CLOUDY    77  70  79 W3        29.94S
LONE ROCK      CLOUDY    72  69  90 CALM      29.95R
PLATTEVILLE    CLEAR     71  69  94 S3        29.97R
FORT MC COY    PTCLDY    69  66  92 CALM      29.93S
CAMP DOUGLAS   CLEAR     76  76 100 SW12      29.92S
VIROQUA          N/A     73  69  90 S7        29.95S
WIS DELLS      CLOUDY    74  67  78 SW8       29.94F
$$

...ELSEWHERE IN WISCONSIN...


CITY           SKY/WX    TMP DP  RH WIND       PRES   REMARKS
MILWAUKEE      MOCLDY    76  70  82 S7        29.95S
MADISON        CLOUDY    76  69  79 SW3       29.94F
GREEN BAY      LGT RAIN  70  68  93 CALM      29.90F FOG
EAU CLAIRE     CLOUDY    69  67  93 CALM      29.92S
BLACK RVR FLS  CLOUDY    71  71 100 CALM      29.92S
MEDFORD        CLOUDY    67  67 100 NE6       29.96R
WAUSAU         LGT RAIN  68  67  96 N3        29.93S FOG
WIS RAPIDS     CLOUDY    73  70  90 SW3       29.93F
MARSHFIELD     MOCLDY    71  66  84 CALM      29.93F
RICE LAKE      MOCLDY    64  63  95 CALM      29.96S FOG
$$

...NORTHEAST IOWA...


CITY           SKY/WX    TMP DP  RH WIND       PRES   REMARKS
DECORAH        CLEAR     72  70  94 S7G13     29.93S
MASON CITY     CLEAR     69  67  93 S3        29.93R
CHARLES CITY   CLEAR     70  70 100 S6        29.93S
OELWEIN          N/A     70  70 100 S5        29.94S
$$

...ELSEWHERE IN IOWA...


CITY           SKY/WX    TMP DP  RH WIND       PRES   REMARKS
DES MOINES     PTCLDY    76  70  82 S8        29.91F
IOWA CITY      CLEAR     72  69  90 S3        29.95F
FORT DODGE     CLEAR     73  66  78 S7        29.90F
$$

...NORTHERN ILLINOIS...


CITY           SKY/WX    TMP DP  RH WIND       PRES   REMARKS
CHICAGO-OHARE  MOCLDY    79  67  66 SW6       29.97S
CHICAGO-MIDWAY MOCLDY    81  69  67 S5        29.97F
MOLINE         PTCLDY    75  67  76 SW5       29.95F
ROCKFORD       MOCLDY    75  69  81 S5        29.98R
PEORIA         PTCLDY    76  66  71 S5        29.99R
$$

NOTE: "FAIR" INDICATES FEW OR NO CLOUDS BELOW 12,000 FEET WITH NO
SIGNIFICANT WEATHER AND/OR OBSTRUCTIONS TO VISIBILITY. WIND
SPEEDS ARE IN MILES-PER-HOUR.



USA.gov is the U.S. government's official web portal to all federal, state and local government web resources and services.